Location: Écuvilly
(49.6505°N, 2.9206°E)
Time: 07:08:08
(UTC+00:00)

SL-12 R/B(2) - Pass Details

Date: 17 November 2025
Orbit: 1173 x 2176 km, 63.4° (Epoch: 16 December)

Event Time Altitude Azimuth Distance (km) Brightness Sun altitude
Rises 17:17:18 0° 206° (SSW) 4,173 7.4 -12.0°
Reaches altitude 10° 17:19:54 10° 203° (SSW) 3,281 6.8 -12.4°
Maximum altitude 17:27:43 67° 123° (ESE) 1,560 4.4 -13.6°
Enters shadow 17:37:05 11° 45° (NE) 3,902 6.1 -15.1°
